Weather in Cheyenne

United States     41°08′04″N   104°47′53″W
temp.,
°C
wind,
m/s
gust,
m/s
humid.,
%
clouds,
%
prec.,
mm/h
press.,
hPa
HPBL,
m
18 september, sat
sat1801:00+11ssw610560 0.0 1020138
04:00+13sw44310 0.0 101834
07:00+14wsw58190 0.0 101876
10:00+22w69130 0.0 1015376
13:00+28sw7890 0.0 10122433
16:00+29s6881 0.0 10092278
19:00+26wsw351591 0.0 1008237
22:00+22sw3324100 0.0 100934
19 september, sun
sun1901:00+17w121753100 0.0 1013580
04:00+18wsw91745100 0.1 1011560
07:00+15wsw614500 0.1 1011332
10:00+21wsw912360 0.0 10091286
13:00+25sw811213 0.0 10053028
16:00+26ssw6102061 0.0 10023117
19:00+24w12122530 0.0 10021831
22:00+19wnw10153628 0.0 1005710
20 september, mon
mon2001:00+13nw81343100 0.0 1010759
04:00+10nw714470 0.0 1012649
07:00+9nw814445 0.0 1015799
10:00+11nw812360 0.0 10171624
13:00+15nw912195 0.0 10172912
16:00+17wnw101313100 0.0 10144027
19:00+15nnw8122097 0.0 10173077
22:00+6n710723 0.0 1026343
21 september, tue
tue2101:00+4nw48820 0.0 1028166
04:00+4nw510620 0.0 1029178
07:00+4nw46624 0.0 103090
10:00+10nw23350 0.0 1029457
13:00+15ssw56220 0.0 10261890
16:00+19s46155 0.0 10221933
19:00+18s55200 0.0 1022543
22:00+11ssw59310 0.0 1025117
22 september, wed
wed2201:00+10sw59380 0.0 1025131
04:00+10sw45370 0.0 102345
07:00+10w45230 0.0 102340
10:00+18w510150 0.0 1020572
13:00+24wnw68105 0.0 10172090
16:00+28w5875 0.0 10123893
19:00+25wnw4783 0.0 1012165
22:00+14wsw12190 0.0 101520